TimeEDT,TemperatureF,Dew PointF,Humidity,Sea Level PressureIn,VisibilityMPH,Wind Direction,Wind SpeedMPH,Gust SpeedMPH,PrecipitationIn,Events,Conditions,WindDirDegrees,DateUTC
12:17 AM,32.0,32.0,100,30.32,10.0,Calm,Calm,-,N/A,,Clear,0,2013-05-26 04:17:00
12:37 AM,32.0,32.0,100,30.32,4.0,Calm,Calm,-,N/A,,Clear,0,2013-05-26 04:37:00
12:57 AM,30.2,30.2,100,30.32,10.0,Calm,Calm,-,N/A,,Clear,0,2013-05-26 04:57:00
1:17 AM,30.2,30.2,100,30.31,10.0,Calm,Calm,-,N/A,,Clear,0,2013-05-26 05:17:00
1:37 AM,30.2,30.2,100,30.31,10.0,Calm,Calm,-,N/A,,Clear,0,2013-05-26 05:37:00
1:57 AM,32.0,32.0,100,30.31,10.0,WNW,3.5,-,N/A,,Clear,290,2013-05-26 05:57:00
2:17 AM,32.0,32.0,100,30.31,10.0,Calm,Calm,-,N/A,,Clear,0,2013-05-26 06:17:00
2:37 AM,32.0,32.0,100,30.30,10.0,Calm,Calm,-,N/A,,Clear,0,2013-05-26 06:37:00
2:57 AM,32.0,32.0,100,30.30,10.0,Calm,Calm,-,N/A,,Clear,0,2013-05-26 06:57:00
3:17 AM,30.2,30.2,100,30.30,10.0,Calm,Calm,-,N/A,,Clear,0,2013-05-26 07:17:00
3:37 AM,32.0,32.0,100,30.30,10.0,Calm,Calm,-,N/A,,Clear,0,2013-05-26 07:37:00
3:57 AM,32.0,32.0,100,30.30,10.0,Calm,Calm,-,N/A,,Clear,0,2013-05-26 07:57:00
4:17 AM,30.2,30.2,100,30.29,10.0,Calm,Calm,-,N/A,,Clear,0,2013-05-26 08:17:00
4:37 AM,30.2,30.2,100,30.30,10.0,Calm,Calm,-,N/A,,Clear,0,2013-05-26 08:37:00
4:57 AM,32.0,32.0,100,30.30,10.0,Calm,Calm,-,N/A,,Clear,0,2013-05-26 08:57:00
5:17 AM,32.0,32.0,100,30.30,10.0,Calm,Calm,-,N/A,,Clear,0,2013-05-26 09:17:00
5:37 AM,30.2,30.2,100,30.31,10.0,Calm,Calm,-,N/A,,Clear,0,2013-05-26 09:37:00
5:57 AM,30.2,30.2,100,30.30,10.0,Calm,Calm,-,N/A,,Clear,0,2013-05-26 09:57:00
6:17 AM,30.2,30.2,100,30.31,7.0,Calm,Calm,-,N/A,,Clear,0,2013-05-26 10:17:00
6:37 AM,32.0,32.0,100,30.32,10.0,WNW,3.5,-,N/A,,Clear,290,2013-05-26 10:37:00
6:57 AM,35.6,33.8,93,30.33,10.0,WNW,4.6,-,N/A,,Clear,290,2013-05-26 10:57:00
7:17 AM,35.6,33.8,93,30.33,10.0,WNW,3.5,-,N/A,,Clear,290,2013-05-26 11:17:00
7:37 AM,39.2,35.6,87,30.33,10.0,NW,3.5,-,N/A,,Clear,310,2013-05-26 11:37:00
7:57 AM,42.8,37.4,81,30.33,10.0,WNW,3.5,-,N/A,,Clear,300,2013-05-26 11:57:00
8:17 AM,46.4,37.4,71,30.33,10.0,WNW,3.5,-,N/A,,Clear,290,2013-05-26 12:17:00
8:37 AM,48.2,35.6,62,30.33,10.0,WNW,4.6,-,N/A,,Clear,300,2013-05-26 12:37:00
8:57 AM,50.0,37.4,62,30.33,10.0,WNW,6.9,-,N/A,,Clear,290,2013-05-26 12:57:00
9:17 AM,51.8,37.4,58,30.33,10.0,NW,5.8,-,N/A,,Clear,320,2013-05-26 13:17:00
9:37 AM,53.6,39.2,58,30.33,10.0,North,6.9,-,N/A,,Clear,350,2013-05-26 13:37:00
9:57 AM,55.4,39.2,54,30.35,10.0,NNW,4.6,-,N/A,,Clear,330,2013-05-26 13:57:00
10:17 AM,57.2,39.2,51,30.34,10.0,NW,6.9,-,N/A,,Clear,320,2013-05-26 14:17:00
10:37 AM,57.2,39.2,51,30.32,10.0,NW,6.9,-,N/A,,Clear,310,2013-05-26 14:37:00
10:57 AM,57.2,37.4,48,30.32,10.0,North,5.8,-,N/A,,Clear,350,2013-05-26 14:57:00
11:17 AM,59.0,37.4,45,30.32,10.0,NW,9.2,-,N/A,,Clear,320,2013-05-26 15:17:00
11:37 AM,59.0,39.2,48,30.32,10.0,NNW,8.1,-,N/A,,Clear,340,2013-05-26 15:37:00
11:57 AM,59.0,42.8,55,30.32,10.0,NE,12.7,-,N/A,,Clear,40,2013-05-26 15:57:00
12:17 PM,59.0,42.8,55,30.32,10.0,NE,12.7,-,N/A,,Clear,50,2013-05-26 16:17:00
12:37 PM,59.0,39.2,48,30.33,10.0,NE,12.7,-,N/A,,Clear,40,2013-05-26 16:37:00
12:57 PM,60.8,39.2,45,30.33,10.0,NNE,12.7,16.1,N/A,,Clear,30,2013-05-26 16:57:00
1:17 PM,59.0,39.2,48,30.33,10.0,NE,10.4,16.1,N/A,,Clear,50,2013-05-26 17:17:00
1:37 PM,60.8,37.4,42,30.33,10.0,NE,13.8,18.4,N/A,,Clear,50,2013-05-26 17:37:00
1:57 PM,59.0,37.4,45,30.33,10.0,NNE,6.9,18.4,N/A,,Clear,30,2013-05-26 17:57:00
2:17 PM,60.8,35.6,39,30.32,10.0,NNE,12.7,-,N/A,,Clear,30,2013-05-26 18:17:00
2:37 PM,59.0,35.6,42,30.32,10.0,NNE,13.8,-,N/A,,Clear,30,2013-05-26 18:37:00
2:57 PM,59.0,35.6,42,30.33,10.0,NE,11.5,16.1,N/A,,Clear,50,2013-05-26 18:57:00
3:17 PM,59.0,35.6,42,30.32,10.0,NE,13.8,18.4,N/A,,Clear,40,2013-05-26 19:17:00
3:37 PM,60.8,37.4,42,30.32,10.0,NNE,11.5,-,N/A,,Clear,20,2013-05-26 19:37:00
3:57 PM,59.0,35.6,42,30.32,10.0,NNE,12.7,-,N/A,,Clear,30,2013-05-26 19:57:00
4:17 PM,57.2,33.8,41,30.31,10.0,NE,11.5,16.1,N/A,,Clear,40,2013-05-26 20:17:00
4:37 PM,59.0,33.8,39,30.31,10.0,NE,11.5,-,N/A,,Clear,40,2013-05-26 20:37:00
4:57 PM,57.2,33.8,41,30.31,10.0,NE,10.4,-,N/A,,Clear,50,2013-05-26 20:57:00
5:17 PM,57.2,33.8,41,30.30,10.0,NE,12.7,-,N/A,,Clear,40,2013-05-26 21:17:00
5:37 PM,57.2,32.0,38,30.30,10.0,NE,12.7,-,N/A,,Clear,40,2013-05-26 21:37:00
5:57 PM,57.2,33.8,41,30.30,10.0,NE,12.7,16.1,N/A,,Clear,40,2013-05-26 21:57:00
6:17 PM,55.4,32.0,41,30.29,10.0,NE,10.4,-,N/A,,Clear,50,2013-05-26 22:17:00
6:37 PM,55.4,32.0,41,30.29,10.0,NE,10.4,-,N/A,,Clear,40,2013-05-26 22:37:00
6:57 PM,55.4,32.0,41,30.29,10.0,NNE,8.1,-,N/A,,Clear,30,2013-05-26 22:57:00
7:17 PM,53.6,32.0,44,30.28,10.0,NE,8.1,-,N/A,,Clear,50,2013-05-26 23:17:00
7:37 PM,51.8,32.0,47,30.28,10.0,NNE,4.6,-,N/A,,Clear,30,2013-05-26 23:37:00
7:57 PM,50.0,33.8,54,30.28,10.0,NE,4.6,-,N/A,,Clear,50,2013-05-26 23:57:00
8:17 PM,48.2,33.8,58,30.27,10.0,Calm,Calm,-,N/A,,Clear,0,2013-05-27 00:17:00
8:37 PM,48.2,32.0,54,30.27,10.0,NNE,3.5,-,N/A,,Clear,30,2013-05-27 00:37:00
8:57 PM,44.6,33.8,66,30.27,10.0,Calm,Calm,-,N/A,,Clear,0,2013-05-27 00:57:00
9:17 PM,44.6,33.8,66,30.27,10.0,Calm,Calm,-,N/A,,Clear,0,2013-05-27 01:17:00
9:37 PM,42.8,35.6,76,30.27,10.0,Calm,Calm,-,N/A,,Clear,0,2013-05-27 01:37:00
9:57 PM,42.8,35.6,76,30.27,10.0,Calm,Calm,-,N/A,,Clear,0,2013-05-27 01:57:00
10:17 PM,41.0,35.6,81,30.27,10.0,Calm,Calm,-,N/A,,Clear,0,2013-05-27 02:17:00
10:37 PM,41.0,33.8,76,30.27,10.0,Calm,Calm,-,N/A,,Clear,0,2013-05-27 02:37:00
10:57 PM,39.2,35.6,87,30.28,10.0,Calm,Calm,-,N/A,,Clear,0,2013-05-27 02:57:00
11:17 PM,37.4,35.6,93,30.27,10.0,Calm,Calm,-,N/A,,Clear,0,2013-05-27 03:17:00
11:37 PM,37.4,35.6,93,30.28,10.0,Calm,Calm,-,N/A,,Clear,0,2013-05-27 03:37:00
11:57 PM,35.6,33.8,93,30.27,10.0,Calm,Calm,-,N/A,,Clear,0,2013-05-27 03:57:00